Regional Weather Roundup
Issued by NWS

Home | Current Version | Previous Version | Graphics & Text | Print | Product List | Glossary On
Versions: 1 2 3 4 5 6 7 8 9 10 11 12 13 14 15 16 17 18 19 20 21 22 23 24 25 26 27 28 29 30 31 32 33 34 35 36 37 38 39 40 41 42 43 44 45 46 47 48 49 50
000
ASUS43 KMKX 230711
RWRWI

WISCONSIN REGIONAL WEATHER ROUNDUP
NATIONAL WEATHER SERVICE MILWAUKEE/SULLIVAN WI
200 AM CDT SUN APR 23 2017

NOTE: "FAIR" INDICATES FEW OR NO CLOUDS BELOW 12,000 FEET WITH NO
SIGNIFICANT WEATHER AND/OR OBSTRUCTIONS TO VISIBILITY.

WIZ001-002-006>008-014>016-023>028-230800-
NORTHWEST WISCONSIN

CITY           SKY/WX    TMP DP  RH WIND       PRES   REMARKS
SUPERIOR ARPT  CLOUDY    46  38  74 NE9       30.11R
ASHLAND        CLOUDY    44  38  79 NE7       30.08S
HAYWARD        CLOUDY    41  34  76 CALM      30.04R
SIREN          PTCLDY    54  34  47 CALM      30.03F
CUMBERLAND     CLEAR     46  32  57 SW6       30.05F
RICE LAKE      CLEAR     50  34  54 S3        30.06F
CHETEK         CLEAR     47  35  63 SW6       30.06S
LADYSMITH      CLOUDY    49  34  56 S3        30.06F
EAU CLAIRE     CLEAR     44  36  73 SW5       30.07F
MENOMONIE      CLEAR     46  38  73 CALM      30.07F
NEW RICHMOND   CLOUDY    47  35  63 SW5       30.07S
OSCEOLA        CLOUDY    51  35  55 SW7       30.08F
$$

WIZ003>005-009-010-017-018-230800-
NORTH CENTRAL WISCONSIN

CITY           SKY/WX    TMP DP  RH WIND       PRES   REMARKS
MANITOWISH WTR PTCLDY    40  37  89 CALM      30.02F
ARBOR VITAE    PTCLDY    49  34  57 SW3       30.02F
WOODRUFF       PTCLDY    49  34  57 SW3       30.02F
RHINELANDER    CLOUDY    48  34  58 SW7       30.04F
EAGLE RIVER    CLOUDY    40  32  73 CALM      30.02F
LAND O LAKES   CLOUDY    38  35  90 CALM      30.04F
PHILLIPS       PTCLDY    50  34  54 SW6       30.03F
TOMAHAWK       CLOUDY    47  32  56 CALM      30.04F
MEDFORD        CLEAR     48  33  54 SW7       30.06F
MERRILL        PTCLDY    46  33  60 W5        30.06F
$$

WIZ029-030-035-036-043>047-230800-
CENTRAL WISCONSIN

CITY           SKY/WX    TMP DP  RH WIND       PRES   REMARKS
WAUSAU         CLEAR     51  32  48 SW8       30.05F
MOSINEE        CLEAR     43  32  65 SW7       30.08F
MARSHFIELD     CLEAR     49  30  48 SW5       30.07F
STEVENS POINT  CLEAR     37  32  82 CALM      30.09F
WAUPACA        CLEAR     42  33  73 CALM      30.09F
WAUTOMA        CLEAR     35  32  88 CALM      30.11F
WISC RAPIDS    CLEAR     39  34  82 SW5       30.10F
CAMP DOUGLAS   CLEAR     36  31  80 SE3       30.10F
$$

WIZ011>013-019>022-031-037>040-048>050-230800-
NORTHEAST WISCONSIN

CITY           SKY/WX    TMP DP  RH WIND       PRES   REMARKS
ANTIGO         CLEAR     44  33  65 SW8       30.05F
SHAWANO        CLEAR     47  32  55 CALM      30.07F
OCONTO         CLEAR     47  32  56 SW5       30.05F
STURGEON BAY   CLEAR     52  30  43 SW8       30.06F
GREEN BAY      CLEAR     48  39  71 SW8       30.08F
MANITOWOC      CLEAR     50  29  44 W10       30.09F
APPLETON       CLEAR     46  30  53 SW9       30.07F
CLINTONVILLE   CLEAR     46  30  53 SW5       30.08S
OSHKOSH        CLEAR     50  31  48 SW7       30.10S
$$

WIZ032>034-041-042-053>061-230800-
SOUTHWEST WISCONSIN

CITY           SKY/WX    TMP DP  RH WIND       PRES   REMARKS
LA CROSSE      CLEAR     49  41  74 SE6       30.11F
SPARTA         CLEAR     33  30  90 CALM      30.12S
VIROQUA        CLEAR     49  28  42 SW3       30.12F
BOSCOBEL       CLEAR     38  33  82 CALM      30.14S
PRAIRIE DU CHI CLEAR     41  33  71 CALM      30.14S
PLATTEVILLE    CLEAR     48  31  52 CALM      30.14S
$$

WIZ056-057-062-063-064-067-068-230800-
SOUTH CENTRAL WISCONSIN

CITY           SKY/WX    TMP DP  RH WIND       PRES   REMARKS
REEDSBURG      CLEAR     40  35  83 CALM      30.12S
BARABOO/DELLS  CLEAR     41  30  66 CALM      30.12S
LONE ROCK      CLEAR     37  33  85 CALM      30.13F
MINERAL POINT  CLEAR     48  27  43 W3        30.13S
MADISON        CLEAR     40  34  79 CALM      30.12S
MIDDLETON      CLEAR     41  36  83 CALM      30.13S
WATERTOWN      CLEAR     38  31  76 CALM      30.11F
MONROE         CLEAR     46  28  49 S6        30.13S
JANESVILLE     CLEAR     41  32  70 CALM      30.13S
$$

WIZ051-052-058>065-066-070>072-230800-
SOUTHEAST WISCONSIN

CITY           SKY/WX    TMP DP  RH WIND       PRES   REMARKS
MILWAUKEE      CLEAR     43  28  55 CALM      30.12F
WAUKESHA       CLEAR     41  23  48 CALM      30.13S
MILWAUKEE/TIMM CLEAR     37  28  70 CALM      30.13S
RACINE         CLEAR     40  30  67 W3        30.14F
KENOSHA        CLEAR     39  30  70 SW5       30.12F
FOND DU LAC    CLEAR     47  32  56 SW8       30.11F
SHEBOYGAN      CLEAR     43  29  57 SW7       30.10F
WEST BEND      CLEAR     39  28  65 CALM      30.11F
JUNEAU         CLEAR     44  32  62 CALM      30.13S
$$

LSZ147-162-230800-
LAKE SUPERIOR

STATION/POSITION TIME  TEMP    WIND        PRES    WAVE
                       AIR SEA DIR/SP/G            HT/PER
                 (UTC) (F)     (DEG/KT/KT) (MB)    (FT/S)
DEVILS ISLAND    0700   44     360/ 13/ 13 1019.9R
PORT WING        0630   43      40/  5/  7 1018.6S
SAXON HARBOR     0640   42      90/  2/  3 1017.9R
$$

LMZ867-665-643>646-230800-
LAKE MICHIGAN

STATION/POSITION TIME  TEMP    WIND        PRES    WAVE
                       AIR SEA DIR/SP/G            HT/PER
                 (UTC) (F)     (DEG/KT/KT) (MB)    (FT/S)
CHAMBERS ISLAND  0640   50     190/  7/ 15 1016.9F
N MID LAKE BUOY  0650   41 37  200/ 12/ 14 1017.6F   2/ 4
NORTHPORT PIER   0640   55     240/  7/ 16 1016.9S
SISTER BAY       0636   54     220/ 14/ 18   N/A
KEWAUNEE LAKESHO 0648   50     260/ 10/ 14 1017.8F
SHEBOYGAN LAKESH 0700   48     250/ 10/ 11 1019.2F
PORT WASHINGTON  0640   46     270/  2/  4 1020.7S
MILWAUKEE LAKESH 0650   53     230/  4/  6   N/A
KENOSHA   LAKESH 0700   49     260/  7/  8 1020.0
$$

TC  - TEMPERATURE IN CELSIUS
VSB - VISIBILITY IN STATUTE MILES
WCI - WIND CHILL INDEX
HX  - HEAT INDEX





USA.gov is the U.S. government's official web portal to all federal, state and local government web resources and services.